Regional Weather Roundup
Issued by NWS

Home | Current Version | Previous Version | Graphics & Text | Print | Product List | Glossary On
Versions: 1 2 3 4 5 6 7 8 9 10 11 12 13 14 15 16 17 18 19 20 21 22 23 24 25 26 27 28 29 30 31 32 33 34 35 36 37 38 39 40 41 42 43 44 45 46 47 48 49 50
559
ASUS43 KDMX 280806
RWRIA

WEATHER ROUNDUP FOR IOWA
NATIONAL WEATHER SERVICE DES MOINES IA
300 AM CDT FRI APR 28 2017

NOTE: "FAIR" INDICATES FEW OR NO CLOUDS BELOW 12,000 FEET WITH NO
SIGNIFICANT WEATHER AND/OR OBSTRUCTIONS TO VISIBILITY.

* - THESE STATIONS ARE NOT NWS STATIONS...THUS NOT UNDER NWS
QUALITY CONTROL.  THEY ALSO DO NOT REPORT WEATHER SUCH
AS PRECIPITATION OR FOG.

IAZ001>003-012>014-020>022-031>034-043>046-280900-
   NORTHWEST IOWA

CITY           SKY/WX    TMP DP  RH WIND       PRES   REMARKS
CARROLL *      CLOUDY    34  32  93 NE9       29.85S WCI  26
CHEROKEE *     CLEAR     32  29  88 CALM      29.86R
DENISON *      CLOUDY    36  32  87 NE10G16   29.84F WCI  28
LE MARS *      CLEAR     34  30  86 E8        29.86S WCI  27
ORANGE CITY *  CLEAR     32  28  86 NE6       29.84S WCI  26
SHELDON *      CLEAR     28  27  93 CALM      29.84S
SIOUX CITY     CLEAR     36  31  82 NE13      29.83F WCI  27
SPENCER        CLEAR     26  25  96 CALM      29.86S
STORM LAKE *   CLOUDY    30  27  86 E12       29.85S WCI  21
$$

IAZ055>058-069>071-079>083-090>094-280900-
   SOUTHWEST IOWA

CITY           SKY/WX    TMP DP  RH WIND       PRES   REMARKS
ATLANTIC *     MIX PCPN  41  34  75 NE10      29.81S
AUDUBON *      CLOUDY    36  32  87 NE7       29.83F WCI  30
CLARINDA *       N/A     50  37  62 E8G15     29.81F
COUNCIL BLFS * CLOUDY    45  37  76 NE10      29.78F
CRESTON *      CLOUDY    43  34  70 E15       29.83S
HARLAN  *      CLOUDY    39  34  81 VRB7G14   29.84F WCI  34
LAMONI         CLOUDY    45  37  73 NE12      29.80F
RED OAK *      CLOUDY    46  36  66 NE7G14    29.79F
SHENANDOAH *   CLOUDY    50  39  66 NE7       29.78F
$$

IAZ047>049-059>061-072>074-084-280900-
   CENTRAL IOWA

CITY           SKY/WX    TMP DP  RH WIND       PRES   REMARKS
AMES           PTCLDY    34  31  88 NE8       29.86S WCI  27
ANKENY *       CLOUDY    37  32  81 NE6       29.86F WCI  33
BOONE *        CLOUDY    34  30  86 NE8       29.85F WCI  27
CHARITON *     CLOUDY    41  36  81 NE9       29.83S
DES MOINES     CLOUDY    42  31  64 NE7       29.85S
GRINNELL*      CLOUDY    38  32  79 NE7       29.86F WCI  32
KNOXVILLE *    CLOUDY    41  32  70 NE7       29.84R
MARSHALLTOWN   PTCLDY    32  29  88 NE8       29.86R WCI  25
NEWTON *       CLOUDY    39  32  75 NE7       29.84S WCI  34
PELLA *        CLOUDY    41  33  74 NE5       29.87R
PERRY *          N/A     36  31  84 N6        29.85F WCI  31
$$

IAZ004>006-015-016-023>025-035-036-280900-
   NORTH CENTRAL IOWA

CITY           SKY/WX    TMP DP  RH WIND       PRES   REMARKS
ALGONA *       CLEAR     30  28  93 CALM      29.86S
CLARION *      CLEAR     28  28 100 NE12      29.86F WCI  18
ESTHERVILLE    CLEAR     26  25  96 S6        29.85F WCI  19
FORT DODGE *   CLEAR     30  25  80 E3        29.86F
MASON CITY     CLEAR     28  25  88 SW3       29.88S
FOREST CITY *    N/A     28  21  74 CALM      29.86F
WEBSTER CITY * CLEAR     32  27  80 NE5       29.85S WCI  27
IOWA FALLS *     N/A     33  28  81 N6        29.87S WCI  28
$$

IAZ007>011-017>019-026>030-037>042-050>054-066-280900-
   NORTHEAST IOWA

CITY           SKY/WX    TMP DP  RH WIND       PRES   REMARKS
CEDAR RAPIDS   CLOUDY    36  32  85 N7        29.86S WCI  30
CHARLES CITY * CLOUDY    30  28  93 NW6       29.88S WCI  24
CLINTON *      PTCLDY    35  33  92 N3        29.88S
DECORAH *      CLOUDY    34  28  80 VRB7G15   29.85R WCI  28
DUBUQUE        PTCLDY    33  30  88 CALM      29.86S
MONTICELLO *   PTCLDY    32  32 100 CALM      29.87S
WATERLOO       CLOUDY    30  26  85 N9        29.86S WCI  22
$$

IAZ064-065-067-068-078-280900-
   EAST CENTRAL IOWA

CITY           SKY/WX    TMP DP  RH WIND       PRES   REMARKS
DAVENPORT      CLOUDY    38  34  85 N6        29.87S WCI  33
IOWA CITY      PTCLDY    40  34  79 NE5       29.88S
MT. PLEASANT * CLOUDY    41  36  81 NE6       29.86R
MUSCATINE *    CLOUDY    41  36  81 N5        29.87S
QUAD CITIES    CLOUDY    40  37  89 CALM      29.86F
$$

IAZ062-063-075>077-085>089-095>099-280900-
   SOUTHEAST IOWA

CITY           SKY/WX    TMP DP  RH WIND       PRES   REMARKS
BURLINGTON     CLOUDY    45  42  89 NE10      29.84R
FAIRFIELD *    CLOUDY    41  34  75 NE6       29.86R
FORT MADISON * CLOUDY    46  45  93 NE3       29.85R
KEOKUK *       CLOUDY    48  46  93 N7        29.82S
OSKALOOSA *    DRIZZLE   40  33  77 NE10      29.85R WCI  33
CENTERVILLE *  MOCLDY    41  37  87 CALM      29.85R
OTTUMWA        CLOUDY    42  34  73 NE8       29.85R
WASHINGTON *   CLOUDY    41  36  81 NE12      29.86S
$$

ABBREVIATIONS USED IN REMARKS
   TC - TEMPERATURES IN CELSIUS
  WCI - WIND CHILL INDEX
   HX - HEAT INDEX
  VSB - VISIBILITY
$$





USA.gov is the U.S. government's official web portal to all federal, state and local government web resources and services.